EW7899 Weather Reports


Display with metric or nautical units.
time (UTC)temp
F
wind
direction
speed
MPH
gust
MPH
rain 1hr
in
rain 24hr
in
rain mn
in
humidity
%
barometer
mb
20260509004536 44 154 0.0 0.0 0.00 0.00 0.00 64 1007.9
20260509003040 45 154 0.0 0.0 0.00 0.00 0.00 65 1007.6
20260509001531 46 154 0.0 2.0 0.00 0.00 0.00 63 1007.5
20260509000031 46 154 0.0 2.0 0.00 0.00 0.00 59 1007.4
20260508234532 47 152 0.0 2.0 0.00 0.00 0.00 55 1007.3
20260508233030 48 140 0.0 5.0 0.00 0.00 0.00 55 1007.3
20260508231530 48 295 0.0 6.0 0.00 0.00 0.00 54 1007.2
20260508230029 49 208 0.0 4.0 0.00 0.00 0.00 53 1007.0
20260508224532 50 304 0.0 7.0 0.00 0.00 0.00 50 1007.0
20260508223034 50 292 0.0 1.0 0.00 0.00 0.00 51 1007.0
20260508221527 50 259 0.0 9.0 0.00 0.00 0.00 46 1007.0
20260508220027 50 291 6.0 20.0 0.00 0.00 0.00 43 1007.1
20260508214527 50 303 6.0 10.0 0.00 0.00 0.00 46 1007.1
20260508213027 50 295 2.0 11.0 0.00 0.00 0.00 46 1007.0
20260508211527 49 314 0.0 11.0 0.00 0.00 0.00 45 1007.0
20260508210026 50 311 7.0 11.0 0.00 0.00 0.00 46 1006.8
20260508204525 50 359 0.0 18.0 0.00 0.00 0.00 43 1006.8
20260508203024 50 359 0.0 8.0 0.00 0.00 0.00 43 1006.6
20260508201527 51 359 5.0 14.0 0.00 0.00 0.00 43 1006.7
20260508200023 49 302 8.0 20.0 0.00 0.00 0.00 44 1007.0
20260508194520 49 255 9.0 18.0 0.00 0.00 0.00 46 1007.0
20260508193021 49 320 9.0 21.0 0.00 0.00 0.00 48 1006.9
20260508191527 50 285 7.0 15.0 0.00 0.00 0.00 46 1006.8
20260508190026 49 269 1.0 12.0 0.00 0.00 0.00 48 1006.8
20260508184517 49 112 0.0 6.0 0.00 0.00 0.00 51 1007.0
20260508183017 48 359 1.0 13.0 0.00 0.00 0.00 53 1007.3
20260508181519 49 359 8.0 16.0 0.00 0.00 0.00 44 1007.3
20260508180014 49 359 4.0 15.0 0.00 0.00 0.00 44 1007.1
20260508174512 47 283 0.0 13.0 0.00 0.00 0.00 48 1007.2
20260508173011 48 314 11.0 18.0 0.00 0.00 0.00 45 1007.2
20260508171514 48 316 7.0 13.0 0.00 0.00 0.00 46 1007.2
20260508170011 48 287 6.0 13.0 0.00 0.00 0.00 48 1007.1
20260508164508 48 297 11.0 16.0 0.00 0.00 0.00 47 1007.1
20260508163012 48 341 7.0 13.0 0.00 0.00 0.00 48 1007.2
20260508161505 47 298 8.0 20.0 0.00 0.00 0.00 54 1007.3
20260508160004 46 305 4.0 14.0 0.00 0.00 0.00 56 1007.4
20260508154505 46 359 11.0 18.0 0.00 0.00 0.00 56 1007.3
20260508153004 46 257 6.0 12.0 0.00 0.00 0.00 54 1007.3
20260508151505 46 359 8.0 14.0 0.00 0.00 0.00 52 1007.1
20260508150005 47 315 12.0 16.0 0.00 0.00 0.00 52 1007.0
20260508144501 46 318 4.0 20.0 0.00 0.00 0.00 56 1007.0
20260508143002 46 291 10.0 15.0 0.00 0.00 0.00 53 1007.0
20260508141621 45 285 7.0 13.0 0.00 0.00 0.00 57 1007.1
20260508134618 47 320 11.0 20.0 0.00 0.00 0.00 55 1007.2
20260508133100 46 303 9.0 15.0 0.00 0.00 0.00 61 1007.3
20260508131552 45 359 9.0 21.0 0.00 0.00 0.00 62 1007.4
20260508130049 44 292 5.0 10.0 0.00 0.00 0.00 69 1007.3
20260508124552 42 287 0.0 5.0 0.00 0.00 0.00 71 1007.5
20260508123047 41 208 0.0 5.0 0.00 0.00 0.00 75 1007.6
20260508121539 41 322 2.0 7.0 0.00 0.00 0.00 75 1007.6
20260508120036 40 231 0.0 5.0 0.00 0.00 0.00 78 1007.5
20260508114536 40 308 0.0 5.0 0.00 0.00 0.00 78 1007.5
20260508113046 39 253 0.0 4.0 0.00 0.00 0.00 81 1007.3
20260508111528 39 170 0.0 5.0 0.00 0.00 0.00 83 1007.1
20260508110027 38 345 0.0 4.0 0.00 0.00 0.00 84 1007.0
20260508104525 38 304 0.0 0.0 0.00 0.00 0.00 84 1006.8
20260508103032 38 295 0.0 4.0 0.00 0.00 0.00 85 1006.6
20260508101529 37 297 0.0 4.0 0.00 0.00 0.00 85 1006.5
20260508100021 37 147 0.0 1.0 0.00 0.00 0.00 86 1006.5
20260508094520 37 311 0.0 1.0 0.00 0.00 0.00 84 1006.3
20260508093020 37 269 0.0 0.0 0.00 0.00 0.00 84 1006.1
20260508091532 37 296 0.0 0.0 0.00 0.00 0.00 85 1006.1
20260508090030 37 297 0.0 0.0 0.00 0.00 0.00 84 1005.9
20260508084518 37 297 0.0 0.0 0.00 0.00 0.00 84 1006.0
20260508083018 37 297 0.0 0.0 0.00 0.00 0.00 85 1005.9
20260508081518 37 359 0.0 0.0 0.00 0.00 0.00 85 1006.0
20260508080024 37 272 0.0 4.0 0.00 0.00 0.00 86 1005.8
20260508074526 36 343 0.0 0.0 0.00 0.00 0.00 87 1005.8
20260508073015 36 185 0.0 6.0 0.00 0.00 0.00 87 1005.7
20260508071523 36 217 0.0 5.0 0.00 0.00 0.00 87 1005.6
20260508070014 36 229 0.0 1.0 0.00 0.00 0.00 87 1005.8
20260508064516 35 359 0.0 4.0 0.00 0.00 0.00 88 1005.7
20260508063013 35 359 0.0 0.0 0.00 0.00 0.00 87 1005.8
20260508061511 35 359 0.0 0.0 0.00 0.00 0.00 86 1005.8
20260508060011 35 295 0.0 0.0 0.00 0.00 0.00 85 1006.0
20260508054509 36 294 0.0 0.0 0.00 0.00 0.00 85 1006.1
20260508053005 36 359 0.0 0.0 0.00 0.00 0.00 84 1006.1
20260508051503 37 275 0.0 2.0 0.00 0.00 0.00 85 1006.2
20260508050001 37 275 0.0 1.0 0.00 0.00 0.00 84 1006.2
20260508044605 37 246 0.0 2.0 0.00 0.00 0.00 83 1006.1
20260508043107 38 187 0.0 5.0 0.00 0.00 0.00 83 1006.1
20260508041552 38 156 0.0 0.0 0.00 0.00 0.00 83 1006.1
20260508040051 38 76 0.0 0.0 0.00 0.00 0.00 83 1006.2
20260508034550 38 335 0.0 0.0 0.00 0.00 0.00 84 1006.2
20260508033049 38 334 0.0 0.0 0.00 0.00 0.00 83 1006.3
20260508031549 37 334 0.0 0.0 0.00 0.00 0.00 83 1006.3
20260508030048 37 335 0.0 0.0 0.00 0.00 0.00 83 1006.3
20260508024548 37 334 0.0 0.0 0.00 0.00 0.00 84 1006.2
20260508023048 37 334 0.0 0.0 0.00 0.00 0.00 82 1006.3
20260508021550 37 335 0.0 0.0 0.00 0.00 0.00 82 1006.3
20260508020046 37 334 0.0 0.0 0.00 0.00 0.00 79 1006.2
20260508014543 38 359 0.0 0.0 0.00 0.00 0.00 78 1006.2
20260508013043 39 335 0.0 0.0 0.00 0.00 0.00 75 1006.1
20260508011542 40 334 0.0 0.0 0.00 0.00 0.00 74 1006.0
20260508010040 41 334 0.0 0.0 0.00 0.00 0.00 71 1006.0